logo
Search for airport 
image banner adimage banner adimage banner ad
image banner ad

ZYCC - Changchun/Longjia

Located in Changchun, China

ICAO - ZYCC, IATA - CGQ

Data provided by Airmate  

General information

Coordinates: N43°59'54" E125°41'18"
Elevation is 705 feet MSL.
 
View others Airports in Jilin Province

Operational data

Special qualification required
Current time UTC:
Current local time:
Weather
METAR: ZYCC 142100Z 28002MPS 230V330 9999 SCT030 15/13 Q1003 NOSIG
TAF: TAF ZYCC 142105Z 1500/1524 31005G12MPS 6000 SCT030 TX21/1506Z TN13/1520Z
View NOTAMs / SUP AIP / TFR affecting this airport [VIEW]
Communications frequencies: [VIEW]

Runways:

RWY identifierQFULength (ft)Width (ft)SurfaceLDA (ft)
0649°10499148CON
24229°10499148CON

Airport contact information

Address: Changchun China

Satellite view of ZYCC